Location: Bailen
(14.1842°N, 120.7958°E)
Time: 17:06:14
(UTC+00:00)

USA 234 - Visible Passes

Search period start: 11 April 2026 00:00
Search period end: 21 April 2026 00:00
Orbit: 1102 x 1106 km, 123.0° (Epoch: 4 January)

Date Brightness Start Highest point End Pass type
(mag) Time Alt. Az. Time Alt. Az. Time Alt. Az.
11 Apr 5.8 10:44:03 10° N 10:47:55 17° NW 10:51:48 10° W visible
11 Apr 4.4 19:02:04 10° ESE 19:07:57 37° NE 19:13:51 10° NNW visible
11 Apr 3.8 20:44:55 10° S 20:50:45 36° SW 20:56:37 10° WNW visible
12 Apr 5.6 18:22:05 10° ENE 18:25:38 15° NE 18:29:12 10° N visible
12 Apr 3.1 20:01:29 10° SE 20:08:02 89° SW 20:14:35 10° NW visible
13 Apr 5.8 11:01:33 10° N 11:05:24 17° NW 11:09:14 10° W visible
13 Apr 4.5 19:19:32 10° ESE 19:25:27 38° NE 19:31:21 10° NNW visible
13 Apr 3.8 21:02:24 10° S 21:08:14 35° SW 21:14:05 10° WNW visible
14 Apr 5.7 18:39:31 10° ENE 18:43:07 16° NE 18:46:42 10° N visible
14 Apr 3.2 20:18:58 10° SE 20:25:30 89° SW 20:32:03 10° NW visible
15 Apr 5.8 11:19:03 10° N 11:22:52 16° NW 11:26:41 10° W visible
15 Apr 4.5 19:37:00 10° ESE 19:42:55 38° NE 19:48:50 10° NNW visible
15 Apr 3.8 21:19:53 10° S 21:25:43 35° SW 21:31:32 10° WNW visible
16 Apr 4.7 10:34:32 10° NNE 10:40:31 40° NW 10:46:31 10° WSW visible
16 Apr 5.7 18:56:57 10° ENE 19:00:35 16° NE 19:04:12 10° N visible
16 Apr 3.2 20:36:27 10° SE 20:42:59 88° SW 20:49:32 10° NW visible
17 Apr 5.8 11:36:33 10° N 11:40:20 16° NW 11:44:07 10° W visible
17 Apr 4.6 19:54:27 10° ESE 20:00:23 38° NE 20:06:19 10° NNW visible
18 Apr 4.7 10:52:01 10° NNE 10:57:59 39° NW 11:03:58 10° WSW visible
18 Apr 5.8 19:14:23 10° E 19:18:03 16° NE 19:21:43 10° N visible
18 Apr 3.3 20:53:55 10° SE 21:00:28 87° SW 21:07:00 10° NW visible
19 Apr 5.8 11:54:03 10° N 11:57:48 16° NW 12:01:33 10° W visible
19 Apr 4.6 20:11:55 10° ESE 20:17:52 39° NE 20:23:48 10° NNW visible
20 Apr 4.7 11:09:30 10° NNE 11:15:28 39° NW 11:21:27 10° WSW visible
20 Apr 5.8 19:31:50 10° E 19:35:31 16° NE 19:39:13 10° N visible
20 Apr 3.3 21:11:24 10° SE 21:17:56 87° SW 21:24:29 10° NW visible
